This demonstration page uses our WeatherBlox Daily Observations layout. Learn more.

Left ArrowRight Arrow

Hourly Observations for March 17, 2016

Temp ( °F °C ) Dew Point ( °F °C ) Humidity (%) Winds ( mph kmh ) Pressure ( in mb ) Visibility ( mi km ) Precip ( " mm )
12:15 am 00:15 Clear 36 2 18 -8 48 48 W 7 11 30.06 1018 10 16 0.00 0.00
12:35 am 00:35 Clear 34 1 18 -8 51 51 NW 6 9 30.09 1019 10 16 0.00 0.00
12:55 am 00:55 Clear 32 0 16 -9 51 51 WNW 7 11 30.09 1019 10 16 0.00 0.00
1:15 am 01:15 Clear 30 -1 16 -9 55 55 WNW 8 13 30.09 1019 10 16 0.00 0.00
1:35 am 01:35 Clear 30 -1 16 -9 55 55 NW 7 11 30.09 1019 10 16 0.00 0.00
1:55 am 01:55 Clear 30 -1 14 -10 51 51 NNW 6 9 30.09 1019 10 16 0.00 0.00
2:15 am 02:15 Clear 30 -1 16 -9 55 55 WNW 6 9 30.09 1019 10 16 0.00 0.00
2:35 am 02:35 Clear 30 -1 16 -9 55 55 W 7 11 30.09 1019 10 16 0.00 0.00
2:55 am 02:55 Clear 32 0 16 -9 51 51 W 5 7 30.09 1019 10 16 0.00 0.00
3:15 am 03:15 Clear 30 -1 16 -9 55 55 WNW 5 7 30.09 1019 10 16 0.00 0.00
3:35 am 03:35 Clear 30 -1 16 -9 55 55 WNW 7 11 30.09 1019 10 16 0.00 0.00
3:55 am 03:55 Clear 28 -2 18 -8 64 64 WNW 7 11 30.09 1019 10 16 0.00 0.00
4:15 am 04:15 Clear 28 -2 18 -8 64 64 WNW 7 11 30.09 1019 10 16 0.00 0.00
4:35 am 04:35 Clear 30 -1 18 -8 59 59 WNW 7 11 30.09 1019 10 16 0.00 0.00
4:55 am 04:55 Clear 30 -1 16 -9 55 55 NNW 8 13 30.09 1019 10 16 0.00 0.00
5:15 am 05:15 Clear 28 -2 16 -9 59 59 WNW 5 7 30.09 1019 10 16 0.00 0.00
5:35 am 05:35 Clear 27 -3 16 -9 64 64 W 3 6 30.12 1020 10 16 0.00 0.00
5:55 am 05:55 Clear 27 -3 16 -9 64 64 NW 6 9 30.12 1020 10 16 0.00 0.00
6:15 am 06:15 Clear 25 -4 16 -9 69 69 W 6 9 30.12 1020 10 16 0.00 0.00
6:35 am 06:35 Clear 30 -1 16 -9 55 55 W 10 17 30.09 1019 10 16 0.00 0.00
6:55 am 06:55 Clear 30 -1 16 -9 55 55 W 8 13 30.09 1019 10 16 0.00 0.00
7:15 am 07:15 Clear 28 -2 16 -9 59 59 WNW 7 11 30.09 1019 10 16 0.00 0.00
7:35 am 07:35 Clear 28 -2 18 -8 64 64 WNW 7 11 30.09 1019 10 16 0.00 0.00
7:55 am 07:55 Sunny 28 -2 16 -9 59 59 WNW 5 7 30.09 1019 10 16 0.00 0.00
8:15 am 08:15 Sunny 27 -3 16 -9 64 64 W 5 7 30.12 1020 10 16 0.00 0.00
8:35 am 08:35 Sunny 30 -1 18 -8 59 59 WNW 6 9 30.09 1019 10 16 0.00 0.00
8:55 am 08:55 Sunny 32 0 18 -8 55 55 WNW 6 9 30.09 1019 10 16 0.00 0.00
9:15 am 09:15 Sunny 36 2 19 -7 52 52 WNW 8 13 30.06 1018 10 16 0.00 0.00
9:35 am 09:35 Sunny 39 4 18 -8 42 42 NW 12 19 30.06 1018 10 16 0.00 0.00
9:55 am 09:55 Sunny 43 6 18 -8 36 36 WNW 12 19 30.03 1017 10 16 0.00 0.00
10:15 am 10:15 Sunny 45 7 16 -9 31 31 WNW 12 19 30.03 1017 10 16 0.00 0.00
10:35 am 10:35 Sunny 46 8 18 -8 32 32 NW 12 19 30.03 1017 10 16 0.00 0.00
10:55 am 10:55 Sunny 48 9 16 -9 27 27 NW 12 19 30.00 1016 10 16 0.00 0.00
11:15 am 11:15 Sunny 48 9 16 -9 27 27 NW 10 17 30.00 1016 10 16 0.00 0.00
11:35 am 11:35 Sunny 48 9 18 -8 29 29 NNW 10 17 30.00 1016 10 16 0.00 0.00
11:55 am 11:55 Mostly Sunny 48 9 19 -7 32 32 NNW 10 17 30.00 1016 10 16 0.00 0.00
12:15 pm 12:15 Sunny 48 9 18 -8 29 29 NW 8 13 30.00 1016 10 16 0.00 0.00
12:35 pm 12:35 Sunny 50 10 16 -9 25 25 NW 10 17 30.00 1016 10 16 0.00 0.00
12:55 pm 12:55 Sunny 52 11 16 -9 24 24 NW 9 15 30.00 1016 10 16 0.00 0.00
1:15 pm 13:15 Sunny 52 11 16 -9 24 24 NW 8 13 30.00 1016 10 16 0.00 0.00
1:35 pm 13:35 Sunny 50 10 14 -10 24 24 N 7 11 30.00 1016 10 16 0.00 0.00
1:55 pm 13:55 Mostly Sunny 52 11 12 -11 20 20 N 9 15 30.00 1016 10 16 0.00 0.00
2:15 pm 14:15 Mostly Sunny 50 10 12 -11 22 22 N 3 6 30.00 1016 10 16 0.00 0.00
2:35 pm 14:35 Mostly Sunny 52 11 10 -12 19 19 WNW 7 11 30.00 1016 10 16 0.00 0.00
2:55 pm 14:55 Sunny 52 11 14 -10 22 22 NNW 3 6 29.97 1015 10 16 0.00 0.00
3:15 pm 15:15 Sunny 52 11 16 -9 24 24 NNW 7 11 29.97 1015 10 16 0.00 0.00
3:35 pm 15:35 Partly Cloudy 52 11 14 -10 22 22 WNW 5 7 29.97 1015 10 16 0.00 0.00
3:55 pm 15:55 Partly Cloudy 52 11 14 -10 22 22 SW 3 6 29.97 1015 10 16 0.00 0.00
4:15 pm 16:15 Partly Cloudy 52 11 16 -9 24 24 SSW 3 6 29.97 1015 10 16 0.00 0.00
4:35 pm 16:35 Partly Cloudy 52 11 12 -11 20 20 N 3 6 29.97 1015 10 16 0.00 0.00
4:55 pm 16:55 Partly Cloudy 52 11 12 -11 20 20 SW 6 9 29.97 1015 10 16 0.00 0.00
5:15 pm 17:15 Sunny 52 11 12 -11 20 20 NW 6 9 29.97 1015 10 16 0.00 0.00
5:35 pm 17:35 Sunny 52 11 12 -11 20 20 NNW 6 9 29.97 1015 10 16 0.00 0.00
5:55 pm 17:55 Sunny 52 11 12 -11 20 20 WNW 6 9 29.97 1015 10 16 0.00 0.00
6:15 pm 18:15 Mostly Sunny 52 11 10 -12 19 19 WNW 6 9 29.97 1015 10 16 0.00 0.00
6:35 pm 18:35 Mostly Cloudy 50 10 14 -10 24 24 N 10 17 30.00 1016 10 16 0.00 0.00
6:55 pm 18:55 Cloudy 50 10 14 -10 24 24 NNW 10 17 30.00 1016 10 16 0.00 0.00
7:15 pm 19:15 Mostly Cloudy 48 9 16 -9 27 27 N 12 19 29.97 1015 10 16 0.00 0.00
7:35 pm 19:35 Sunny 46 8 18 -8 32 32 N 8 13 30.03 1017 10 16 0.00 0.00
7:55 pm 19:55 Clear 45 7 18 -8 34 34 N 8 13 30.03 1017 10 16 0.00 0.00
8:15 pm 20:15 Clear 43 6 18 -8 36 36 NNE 9 15 30.03 1017 10 16 0.00 0.00
8:35 pm 20:35 Clear 45 7 18 -8 34 34 N 13 20 30.03 1017 10 16 0.00 0.00
8:55 pm 20:55 Clear 43 6 18 -8 36 36 NNE 9 15 30.06 1018 10 16 0.00 0.00
9:15 pm 21:15 Clear 43 6 18 -8 36 36 NE 8 13 30.06 1018 10 16 0.00 0.00
9:35 pm 21:35 Clear 41 5 19 -7 42 42 NE 6 9 30.06 1018 10 16 0.00 0.00
9:55 pm 21:55 Clear 39 4 19 -7 45 45 NE 5 7 30.09 1019 10 16 0.00 0.00
10:15 pm 22:15 Clear 39 4 19 -7 45 45 NE 6 9 30.09 1019 10 16 0.00 0.00
10:35 pm 22:35 Clear 37 3 19 -7 48 48 NE 7 11 30.12 1020 10 16 0.00 0.00
10:55 pm 22:55 Clear 37 3 19 -7 48 48 NNE 13 20 30.12 1020 10 16 0.00 0.00
11:15 pm 23:15 Clear 41 5 19 -7 42 42 NNE 16 26 30.12 1020 10 16 0.00 0.00
11:35 pm 23:35 Clear 39 4 18 -8 42 42 NNE 18 30 30.15 1021 10 16 0.00 0.00
11:55 pm 23:55 Clear 39 4 18 -8 42 42 NNE 17 28 30.15 1021 10 16 0.00 0.00

Powered by AerisWeather